Terminal Aerodrome Forecast
Issued by NWS

Home | Current Version | Previous Version | Text Only | Print | Product List | Glossary Off
Versions: 1 2 3 4 5 6 7 8 9 10 11 12

000
FTUS45 KGGW 241700 RRA
TAFGDV
TAF
KGDV 241741Z 2418/2518 29015G25KT P6SM BKN090
     FM250000 VRB06KT P6SM BKN090
     FM250600 VRB04KT P6SM SCT090
      AMD LTD TO CLD VIS AND WIND=

USA.gov is the U.S. government's official web portal to all federal, state and local government web resources and services.